Overview Statistics Trail Chart Weather Telemetry Raw packets
 

This is the latest recevied weather packets stored in our database for station/object W6MAF. If no packets are shown the sender has not sent any weather packets the latest 10 day(s).

<< 27 28 29 30 31 32 33 >>
Time Temp. Humidity Pressure Rain* Wind** Luminosity Snow
1788482094 23.33° C 9% - 0 mm 5.36 m/s, 198° - -
1788481793 23.33° C 11% - 0 mm 4.47 m/s, 174° - -
1788481496 23.89° C 11% - 0 mm 5.81 m/s, 201° - -
1788481198 23.89° C 12% - 0 mm 4.02 m/s, 186° - -
1788480900 23.89° C 13% - 0 mm 3.58 m/s, 187° - -
1788480602 23.33° C 13% - 0 mm 3.13 m/s, 219° - -
1788480304 23.89° C 13% - 0 mm 7.15 m/s, 180° - -
1788480004 23.89° C 12% - 0 mm 8.05 m/s, 210° - -
1788479408 23.89° C 11% - 0 mm 7.15 m/s, 219° - -
1788479110 24.44° C 11% - 0 mm 6.26 m/s, 212° - -
1788478812 24.44° C 10% - 0 mm 6.26 m/s, 195° - -
1788478515 24.44° C 10% - 0 mm 6.71 m/s, 205° - -
1788478214 24.44° C 9% - 0 mm 4.47 m/s, 212° - -
1788477916 24.44° C 11% - 0 mm 6.71 m/s, 179° - -
1788477618 24.44° C 10% - 0 mm 6.26 m/s, 176° - -
1788477320 24.44° C 10% - 0 mm 4.02 m/s, 200° - -
1788477023 25° C 8% - 0 mm 5.36 m/s, 205° - -
1788476725 25° C 8% - 0 mm 5.36 m/s, 208° - -
1788476425 25° C 7% - 0 mm 3.13 m/s, 208° - -
1788476126 25° C 7% - 0 mm 5.36 m/s, 190° - -
1788475828 25° C 6% - 0 mm 4.92 m/s, 190° - -
1788475531 25° C 7% - 0 mm 3.58 m/s, 187° - -
1788475233 25° C 6% - 0 mm 7.6 m/s, 197° - -
1788474935 25° C 6% - 0 mm 4.92 m/s, 231° - -
1788474634 25.56° C 7% - 0 mm 5.81 m/s, 198° - -

* Rain latest hour (hover to see other rain measurements)
** Current wind speed in m/s (hover to see current wind gust speed)